Lid_Strength_Index
6 7 9 8 7 8 9 10 10 9 7 9 9 9 8 6 6 6 5 5 4 4 3 3 2 2 2 1 1 1 1 1 0 1 2 2 1 1 -0 0 1 3 4 6
8 9 7 6 7 8 8 10 10 9 8 9 9 9 8 7 6 6 6 5 5 4 3 2 2 2 2 2 2 1 1 1 1 1 1 1 2 1 0 0 1 3 5 6
10 9 7 8 8 9 8 10 10 11 9 8 9 10 9 7 6 5 5 5 4 4 4 3 3 2 2 2 2 1 1 1 1 0 2 4 4 3 3 4 5 5 6 6
9 8 9 8 9 8 10 8 9 11 11 13 9 14 10 8 8 7 6 6 5 5 4 3 3 2 2 2 1 1 1 1 0 0 1 2 2 4 4 7 7 7 7 7
11 10 10 9 9 8 9 8 10 10 11 12 11 14 11 9 12 9 8 7 6 5 4 4 3 2 2 1 2 1 1 1 1 1 2 1 3 5 6 7 7 7 6 6
10 9 9 8 7 7 7 9 10 10 11 14 13 14 13 13 12 10 8 7 6 6 5 4 3 2 2 1 2 2 1 1 1 1 1 3 5 7 7 7 7 7 7 6
11 11 9 8 9 7 8 10 16 15 16 16 11 13 13 10 9 9 9 7 6 5 5 5 4 3 3 3 2 2 2 3 2 2 4 5 5 6 7 7 7 7 6 6
14 14 11 9 9 10 10 11 16 22 18 17 12 17 13 9 7 7 7 6 6 6 6 5 4 4 3 3 2 2 3 3 3 3 4 3 3 5 5 6 6 5 6 5
14 14 10 10 8 8 9 12 10 16 14 16 14 11 9 8 8 8 7 7 7 7 6 5 5 4 3 3 3 2 2 3 2 3 3 2 2 2 3 3 4 4 5 5
12 15 12 11 8 8 8 8 13 13 20 19 13 13 14 11 9 8 8 8 8 8 7 7 7 6 4 3 2 2 2 2 1 1 1 1 1 2 2 3 4 5 5 5
11 13 13 11 12 12 10 10 10 11 13 16 16 13 10 10 8 8 8 7 9 9 8 8 9 9 7 7 7 6 4 3 4 4 4 5 5 6 6 7 7 5 5 6
11 13 15 14 11 10 10 11 11 12 14 13 14 12 8 8 9 7 8 8 9 9 8 7 9 9 8 7 8 8 8 8 8 7 8 9 9 10 10 9 9 8 8 7
11 13 15 14 12 12 12 11 11 10 11 13 14 12 8 7 8 8 8 7 9 9 8 8 8 8 9 9 10 10 8 9 9 9 9 10 10 9 10 9 8 7 7 7
10 12 14 15 14 13 14 13 12 12 12 12 12 11 9 8 8 7 9 8 8 8 8 8 7 9 8 9 9 10 9 9 9 9 9 9 9 9 8 8 8 8 7 7
11 14 14 13 14 14 14 14 13 13 10 12 12 12 10 8 7 7 7 8 7 8 9 8 8 8 8 9 9 8 9 9 9 9 9 8 8 7 7 8 7 7 7 7
13 15 15 14 13 14 14 12 12 11 11 11 10 11 8 7 6 7 7 7 7 8 7 7 7 7 7 7 7 7 7 7 7 7 7 7 7 7 7 7 7 7 7 7
14 14 15 15 14 13 14 12 12 11 11 11 12 9 7 7 7 7 7 6 7 7 7 7 7 7 7 7 7 7 7 7 7 7 7 7 7 7 7 7 7 7 8 7
14 14 14 15 13 16 12 11 11 12 11 10 10 9 7 6 6 6 5 6 6 7 7 7 7 7 7 7 7 7 7 7 7 8 8 7 7 7 7 7 7 8 8 8
13 13 15 15 15 12 12 11 12 12 11 10 10 9 8 7 6 6 5 5 5 6 6 6 6 7 7 7 7 7 7 8 8 8 8 7 7 7 7 8 8 8 8 8
14 13 14 14 16 16 12 11 10 11 13 10 9 9 9 8 9 7 5 5 5 5 6 6 6 7 7 7 7 7 7 7 8 7 8 7 7 8 8 8 8 8 8 9
15 14 15 14 15 13 10 10 10 14 12 10 9 8 9 9 7 6 5 5 5 5 6 6 6 6 6 6 6 7 7 8 7 7 7 8 8 8 8 8 9 9 10 10
14 15 15 14 15 16 9 10 12 9 9 9 8 8 8 7 8 8 7 6 6 6 6 6 7 7 7 6 6 7 7 7 7 7 8 8 8 9 9 9 10 10 10 11
13 11 11 11 11 9 9 8 8 8 8 8 7 7 7 8 8 8 8 7 7 7 7 7 7 7 7 6 6 7 7 7 8 8 9 9 9 10 10 10 11 11 11 11
11 10 11 11 8 9 9 8 8 8 7 7 7 7 7 8 7 8 8 8 8 8 8 7 7 8 8 7 6 7 7 7 8 9 9 9 10 11 11 11 11 11 11 11
10 11 10 10 8 9 9 8 7 7 7 7 7 7 7 7 7 8 8 9 9 9 8 8 8 8 8 7 7 7 7 7 8 9 10 10 11 11 11 11 11 11 11 12
11 10 11 10 7 8 7 8 7 8 8 7 7 7 7 7 7 8 8 8 9 9 9 9 8 8 8 8 8 8 7 7 9 10 10 10 11 11 11 11 11 12 12 12